Tracking 17267 objects as of 31-August-2015
HD Live streaming from Space Station

SL-16 DEB

Track SL-16 DEB now!
10-day predictions
SL-16 DEB is classified as:


NORAD ID: 24300
Int'l Code: 1996-051D
Perigee: 846.6 km
Apogee: 1,138.9 km
Inclination: 71.0 °
Period: 104.8 minutes
Semi major axis: 7363 km
RCS: 0.0855 m2 (small)
Launch date: September 4, 1996
Source: Commonwealth of Independent States (former USSR) (CIS)

Note: This is SATELLITE DEBRIS
Your satellite tracking list
Your tracking list is empty





NASA's NSSDC Master Catalog

Two Line Element Set (TLE):
1 24300U 96051D   15243.51710318  .00000013  00000-0  52317-4 0  9997
2 24300 071.0301 279.6157 0198460 305.7729 166.2511 13.73903684951990

Source of the keplerian elements: AFSPC

N2YO: 271